This is the latest recevied weather packets stored in our database for station/object KI7JYE. If no packets are shown the sender has not sent any weather packets the latest 10 day(s).
| Time | Temp. | Humidity | Pressure | Rain* | Wind** | Luminosity | Snow |
|---|---|---|---|---|---|---|---|
| 1777740399 | 12.22° C | 85% | 1015 hPa | 0 mm | - | 100 W/m² | - |
| 1777739792 | 11.67° C | 83% | 1015.4 hPa | 0 mm | - | 113 W/m² | - |
| 1777739489 | 11.67° C | 83% | 1015.1 hPa | 0 mm | - | 116 W/m² | - |
| 1777739186 | 11.67° C | 83% | 1015.3 hPa | 0 mm | - | 101 W/m² | - |
| 1777738883 | 11.67° C | 83% | 1015.3 hPa | 0 mm | - | 107 W/m² | - |
| 1777738580 | 11.67° C | 81% | 1015 hPa | 0 mm | - | 76 W/m² | - |
| 1777738278 | 12.22° C | 81% | 1015.1 hPa | 0 mm | - | 73 W/m² | - |
| 1777737976 | 12.22° C | 82% | 1015.1 hPa | 0 mm | - | 65 W/m² | - |
| 1777737372 | 11.67° C | 80% | 1015 hPa | 0 mm | - | 101 W/m² | - |
| 1777737069 | 11.67° C | 80% | 1014.8 hPa | 0 mm | - | 133 W/m² | - |
| 1777736764 | 11.67° C | 80% | 1015.1 hPa | 0 mm | - | 147 W/m² | - |
| 1777736136 | 11.67° C | 81% | 1015.3 hPa | 0 mm | - | 170 W/m² | - |
| 1777735834 | 11.11° C | 82% | 1015.1 hPa | 0 mm | - | 160 W/m² | - |
| 1777735531 | 11.11° C | 83% | 1015.4 hPa | 0 mm | - | 140 W/m² | - |
| 1777735228 | 11.11° C | 83% | 1015.3 hPa | 0 mm | - | 131 W/m² | - |
| 1777734925 | 11.11° C | 83% | 1015.3 hPa | 0 mm | - | 124 W/m² | - |
| 1777734622 | 11.11° C | 83% | 1015.3 hPa | 0 mm | - | 120 W/m² | - |
| 1777734320 | 11.11° C | 83% | 1015.2 hPa | 0 mm | - | 112 W/m² | - |
| 1777734016 | 11.11° C | 84% | 1015.3 hPa | 0 mm | - | 99 W/m² | - |
| 1777733712 | 10.56° C | 84% | 1015 hPa | 0 mm | - | 80 W/m² | - |
| 1777733409 | 10.56° C | 85% | 1014.8 hPa | 0 mm | - | 69 W/m² | - |
| 1777733105 | 10.56° C | 85% | 1014.7 hPa | 0 mm | - | 69 W/m² | - |
| 1777732802 | 10.56° C | 85% | 1014.7 hPa | 0 mm | - | 65 W/m² | - |
| 1777732499 | 10.56° C | 86% | 1014.5 hPa | 0 mm | - | 65 W/m² | - |
| 1777732197 | 10° C | 88% | 1014.7 hPa | 0 mm | - | 62 W/m² | - |
* Rain latest hour (hover to see other rain measurements)
** Current wind speed in m/s (hover to see current wind gust speed)